Location: Leedale
(52.5833°N, 114.4833°W)
Time: 04:21:41
(UTC+00:00)

BlueWalker 3 - Pass Details

Date: 10 August 2024
Orbit: 476 x 487 km, 53.2° (Epoch: 09 September)

Event Time Altitude Azimuth Distance (km) Brightness Sun altitude
Exits shadow 09:54:53 30° 177° (S) 900 2.8 -16.4°
Maximum altitude 09:55:45 34° 148° (SSE) 823 2.8 -16.3°
Drops below altitude 10° 09:59:15 10° 82° (E) 1,693 5.2 -16.0°
Sets 10:01:33 0° 73° (ENE) 2,579 6.4 -15.8°
